AA9VI-10 Weather Reports


Display with metric or nautical units.
time (UTC)temp
F
wind
direction
speed
MPH
gust
MPH
rain 1hr
in
rain 24hr
in
rain mn
in
humidity
%
barometer
mb
20260502123017 35 0.0 0.0 0.00 0.00 0.00 88 1019.6
20260502122017 34 0.0 0.0 0.00 0.00 0.00 88 1019.5
20260502121017 33 0.0 0.0 0.00 0.00 0.00 88 1019.5
20260502115017 32 0.0 0.0 0.00 0.00 0.00 88 1019.3
20260502114017 31 0.0 0.0 0.00 0.00 0.00 88 1019.2
20260502113017 31 0.0 0.0 0.00 0.00 0.00 88 1019.2
20260502112017 31 0.0 0.0 0.00 0.00 0.00 88 1019.1
20260502111017 30 0.0 0.0 0.00 0.00 0.00 88 1018.9
20260502110017 30 0.0 0.0 0.00 0.00 0.00 88 1018.8
20260502105017 30 0.0 0.0 0.00 0.00 0.00 87 1018.9
20260502104017 31 0.0 0.0 0.00 0.00 0.00 87 1019.0
20260502103017 31 0.0 0.0 0.00 0.00 0.00 87 1018.9
20260502102017 31 0.0 0.0 0.00 0.00 0.00 87 1018.9
20260502101017 31 0.0 0.0 0.00 0.00 0.00 88 1018.9
20260502091017 31 0.0 0.0 0.00 0.01 0.00 87 1018.9
20260502071017 31 0.0 0.0 0.00 0.07 0.00 87 1019.0
20260502070017 31 0.0 0.0 0.00 0.07 0.00 87 1019.0
20260502065017 31 0.0 0.0 0.00 0.07 0.00 86 1019.2
20260502064017 32 0.0 0.0 0.00 0.07 0.00 86 1019.2
20260502063017 32 0.0 0.0 0.00 0.07 0.00 86 1019.5
20260502062022 32 0.0 0.0 0.00 0.07 0.00 86 1019.5
20260502061017 32 0.0 0.0 0.00 0.07 0.00 86 1019.5
20260502060017 32 0.0 0.0 0.00 0.07 0.00 86 1019.6
20260502055017 32 0.0 0.0 0.00 0.07 0.00 85 1019.5
20260502054017 32 0.0 0.0 0.00 0.07 0.00 85 1019.5
20260502053017 32 0.0 0.0 0.00 0.07 0.00 85 1019.5
20260502052017 32 0.0 0.0 0.00 0.07 0.00 85 1019.5
20260502051017 32 0.0 0.0 0.00 0.08 0.00 85 1019.5
20260502050017 32 0.0 0.0 0.00 0.08 0.00 85 1019.4
20260502045016 32 0.0 0.0 0.00 0.08 0.08 84 1019.4
20260502044016 32 0.0 0.0 0.00 0.09 0.08 84 1019.4
20260502043019 32 0.0 0.0 0.00 0.10 0.08 84 1019.3
20260502042016 32 0.0 0.0 0.00 0.12 0.08 83 1019.2
20260502041016 33 0.0 0.0 0.00 0.12 0.08 83 1019.3
20260502040015 33 0.0 0.0 0.00 0.12 0.08 83 1019.2
20260502035016 33 0.0 0.0 0.00 0.12 0.08 82 1019.2
20260502034016 33 0.0 0.0 0.00 0.12 0.08 82 1019.1
20260502033015 33 0.0 0.0 0.00 0.12 0.08 82 1019.1
20260502032016 34 0.0 0.0 0.00 0.12 0.08 81 1019.0
20260502031016 34 0.0 0.0 0.00 0.12 0.08 81 1019.0
20260502030015 34 0.0 0.0 0.00 0.12 0.08 81 1019.0
20260502025016 34 0.0 0.0 0.00 0.12 0.08 80 1018.9
20260502024016 34 0.0 0.0 0.00 0.12 0.08 79 1018.8
20260502023016 35 0.0 0.0 0.00 0.12 0.08 80 1018.7
20260502022016 35 0.0 0.0 0.00 0.12 0.08 79 1018.7
20260502021016 36 0.0 0.0 0.00 0.12 0.08 79 1018.6
20260502020015 36 0.0 0.0 0.00 0.12 0.08 78 1018.4
20260502015016 36 0.0 0.0 0.00 0.12 0.08 77 1018.3
20260502014015 37 0.0 1.0 0.00 0.12 0.08 77 1018.1
20260502013016 37 0.0 1.0 0.00 0.12 0.08 77 1018.1
20260502012015 37 68 1.0 3.0 0.00 0.12 0.08 78 1018.1
20260502011015 37 45 1.0 2.0 0.00 0.12 0.08 79 1018.1
20260502010015 37 0.0 2.0 0.00 0.12 0.08 81 1018.0
20260502005015 37 45 1.0 2.0 0.00 0.12 0.08 80 1018.0
20260502004015 37 45 1.0 3.0 0.00 0.12 0.08 80 1018.0
20260502003015 38 68 2.0 5.0 0.00 0.12 0.08 79 1017.8
20260502002015 38 68 1.0 3.0 0.00 0.12 0.08 78 1017.8
20260502001015 39 68 1.0 4.0 0.00 0.12 0.08 74 1018.0
20260502000016 40 45 2.0 5.0 0.00 0.12 0.08 71 1017.9
20260501235016 41 45 1.0 3.0 0.00 0.12 0.08 67 1017.8
20260501234016 41 68 1.0 3.0 0.00 0.12 0.08 69 1017.6
20260501233016 42 68 1.0 2.0 0.00 0.13 0.08 72 1017.4
20260501232016 42 45 2.0 6.0 0.00 0.13 0.08 71 1017.5
20260501231016 43 68 1.0 3.0 0.00 0.13 0.08 72 1017.5
20260501230015 43 0.0 3.0 0.00 0.13 0.08 70 1017.5
20260501225015 43 135 1.0 2.0 0.00 0.13 0.08 69 1017.5
20260501224016 43 135 2.0 4.0 0.00 0.13 0.08 70 1017.4
20260501223015 43 135 1.0 3.0 0.00 0.13 0.08 70 1017.5
20260501222015 43 0.0 2.0 0.00 0.13 0.08 72 1017.6
20260501221015 43 113 1.0 4.0 0.00 0.13 0.08 72 1017.6
20260501220016 43 113 1.0 3.0 0.00 0.13 0.08 70 1017.6
20260501215015 43 113 2.0 3.0 0.00 0.13 0.08 69 1017.6
20260501214015 44 0.0 3.0 0.00 0.13 0.08 70 1017.5
20260501213015 44 68 1.0 3.0 0.00 0.13 0.08 70 1017.4
20260501212015 44 45 1.0 4.0 0.00 0.13 0.08 71 1017.5
20260501211015 44 45 1.0 3.0 0.00 0.13 0.08 70 1017.4
20260501210016 44 68 1.0 3.0 0.00 0.13 0.08 69 1017.4
20260501205017 44 68 1.0 3.0 0.00 0.13 0.08 68 1017.4
20260501204018 45 45 2.0 5.0 0.00 0.13 0.08 68 1017.4
20260501203017 45 90 1.0 4.0 0.00 0.13 0.08 68 1017.3
20260501202017 45 45 2.0 4.0 0.00 0.13 0.08 69 1017.3
20260501201017 45 45 2.0 4.0 0.00 0.13 0.08 68 1017.3
20260501200017 45 45 3.0 5.0 0.00 0.13 0.08 67 1017.3
20260501195017 45 90 1.0 3.0 0.00 0.13 0.08 68 1017.3
20260501194017 45 68 1.0 3.0 0.00 0.13 0.08 66 1017.3
20260501193017 46 113 2.0 4.0 0.00 0.13 0.08 64 1017.2
20260501192017 46 45 2.0 4.0 0.00 0.13 0.08 63 1017.1
20260501191018 47 113 1.0 3.0 0.00 0.13 0.08 64 1016.9
20260501190018 47 45 2.0 5.0 0.00 0.13 0.08 62 1016.8
20260501185018 47 90 2.0 4.0 0.00 0.13 0.08 64 1016.8
20260501184017 47 0 1.0 4.0 0.00 0.13 0.08 63 1016.8
20260501183018 48 45 1.0 4.0 0.00 0.13 0.08 60 1016.7
20260501182016 48 315 1.0 3.0 0.00 0.13 0.08 50 1016.6
20260501181017 49 338 2.0 4.0 0.00 0.13 0.08 48 1016.5
20260501180017 47 23 2.0 5.0 0.00 0.13 0.08 51 1016.5
20260501175017 47 338 2.0 4.0 0.00 0.13 0.08 49 1016.5
20260501174017 48 315 2.0 5.0 0.00 0.13 0.08 48 1016.3
20260501173017 49 0 1.0 4.0 0.00 0.13 0.08 48 1016.4
20260501172017 49 315 1.0 4.0 0.00 0.13 0.08 48 1016.3
20260501171017 49 0 2.0 4.0 0.00 0.13 0.08 52 1016.5
20260501170017 49 0 3.0 5.0 0.00 0.13 0.08 50 1016.4
20260501165017 48 315 3.0 8.0 0.00 0.13 0.08 54 1016.4
20260501164018 48 315 2.0 6.0 0.00 0.13 0.08 53 1016.4
20260501163017 48 338 2.0 5.0 0.00 0.13 0.08 51 1016.3
20260501162018 48 315 1.0 4.0 0.00 0.13 0.08 53 1016.5
20260501161017 48 315 2.0 7.0 0.00 0.13 0.08 57 1016.4
20260501160018 47 0 2.0 7.0 0.00 0.13 0.08 60 1016.3
20260501155017 47 315 2.0 5.0 0.00 0.13 0.08 56 1016.4
20260501154017 47 0 2.0 8.0 0.00 0.13 0.08 58 1016.4
20260501153017 45 315 3.0 7.0 0.00 0.13 0.08 56 1016.3
20260501152017 45 315 3.0 8.0 0.00 0.13 0.08 57 1016.4
20260501151017 45 315 2.0 8.0 0.00 0.13 0.08 58 1016.3
20260501150017 45 315 2.0 5.0 0.00 0.13 0.08 63 1016.3